Time,TemperatureF,DewpointF,PressureIn,WindDirection,WindDirectionDegrees,WindSpeedMPH,WindSpeedGustMPH,Humidity,HourlyPrecipIn,Conditions,Clouds,dailyrainin,SolarRadiationWatts/m^2,SoftwareType,DateUTC
2017-02-23 00:07:00,58.8,57.0,29.79,South,180,3.0,6.0,92,0.00,,,0.00,0,weatherlink.com 1.10,2017-02-23 05:07:00,
2017-02-23 00:22:00,58.5,56.0,29.78,SSW,199,1.0,4.0,92,0.00,,,0.00,0,weatherlink.com 1.10,2017-02-23 05:22:00,
2017-02-23 00:37:00,58.2,56.0,29.78,South,178,2.0,6.0,92,0.00,,,0.00,0,weatherlink.com 1.10,2017-02-23 05:37:00,
2017-02-23 00:52:00,57.9,56.0,29.77,South,185,2.0,5.0,92,0.00,,,0.00,0,weatherlink.com 1.10,2017-02-23 05:52:00,
2017-02-23 01:07:00,57.8,56.0,29.77,South,186,1.0,5.0,92,0.00,,,0.00,0,weatherlink.com 1.10,2017-02-23 06:07:00,
2017-02-23 01:22:00,57.9,56.0,29.77,SSW,198,2.0,7.0,92,0.00,,,0.00,0,weatherlink.com 1.10,2017-02-23 06:22:00,
2017-02-23 01:37:00,58.0,56.0,29.77,South,187,2.0,7.0,92,0.00,,,0.00,0,weatherlink.com 1.10,2017-02-23 06:37:00,
2017-02-23 01:52:00,58.4,56.0,29.77,WSW,237,2.0,7.0,92,0.00,,,0.00,0,weatherlink.com 1.10,2017-02-23 06:52:00,
2017-02-23 02:07:00,58.8,57.0,29.78,SSW,198,2.0,6.0,92,0.00,,,0.00,0,weatherlink.com 1.10,2017-02-23 07:07:00,
2017-02-23 02:22:00,58.9,57.0,29.77,SW,221,3.0,6.0,92,0.00,,,0.00,0,weatherlink.com 1.10,2017-02-23 07:22:00,
2017-02-23 02:37:00,59.0,57.0,29.77,SSW,202,2.0,6.0,92,0.00,,,0.00,0,weatherlink.com 1.10,2017-02-23 07:37:00,
2017-02-23 02:52:00,59.1,57.0,29.77,SSW,209,3.0,6.0,91,0.00,,,0.00,0,weatherlink.com 1.10,2017-02-23 07:52:00,
2017-02-23 03:07:00,59.2,57.0,29.77,SSW,192,0.0,5.0,91,0.00,,,0.00,0,weatherlink.com 1.10,2017-02-23 08:07:00,
2017-02-23 03:22:00,59.2,57.0,29.77,SSW,200,0.0,4.0,91,0.00,,,0.00,0,weatherlink.com 1.10,2017-02-23 08:22:00,
2017-02-23 03:37:00,59.1,57.0,29.78,SSW,200,2.0,3.0,91,0.00,,,0.00,0,weatherlink.com 1.10,2017-02-23 08:37:00,
2017-02-23 03:52:00,58.9,56.0,29.78,SW,235,1.0,5.0,91,0.00,,,0.00,0,weatherlink.com 1.10,2017-02-23 08:52:00,
2017-02-23 04:07:00,59.1,57.0,29.78,SSW,204,4.0,6.0,91,0.00,,,0.00,0,weatherlink.com 1.10,2017-02-23 09:07:00,
2017-02-23 04:22:00,59.1,57.0,29.78,SSW,212,2.0,5.0,91,0.00,,,0.00,0,weatherlink.com 1.10,2017-02-23 09:22:00,
2017-02-23 04:37:00,59.1,57.0,29.78,SSW,194,1.0,6.0,91,0.00,,,0.00,0,weatherlink.com 1.10,2017-02-23 09:37:00,
2017-02-23 04:52:00,59.1,57.0,29.78,SSW,211,1.0,6.0,91,0.00,,,0.00,0,weatherlink.com 1.10,2017-02-23 09:52:00,
2017-02-23 05:07:00,59.0,56.0,29.79,SSW,205,4.0,6.0,91,0.00,,,0.00,0,weatherlink.com 1.10,2017-02-23 10:07:00,
2017-02-23 05:22:00,58.9,56.0,29.79,SW,217,3.0,8.0,91,0.00,,,0.00,0,weatherlink.com 1.10,2017-02-23 10:22:00,
2017-02-23 05:37:00,59.0,56.0,29.79,South,185,2.0,6.0,91,0.00,,,0.00,0,weatherlink.com 1.10,2017-02-23 10:37:00,
2017-02-23 05:52:00,59.0,56.0,29.79,SW,234,1.0,7.0,91,0.00,,,0.00,0,weatherlink.com 1.10,2017-02-23 10:52:00,
2017-02-23 06:07:00,59.0,56.0,29.79,SSW,207,4.0,6.0,91,0.00,,,0.00,0,weatherlink.com 1.10,2017-02-23 11:07:00,
2017-02-23 06:22:00,59.1,57.0,29.79,WSW,238,5.0,7.0,91,0.00,,,0.00,0,weatherlink.com 1.10,2017-02-23 11:22:00,
2017-02-23 06:37:00,59.2,57.0,29.79,WSW,248,4.0,9.0,91,0.00,,,0.00,0,weatherlink.com 1.10,2017-02-23 11:37:00,
2017-02-23 06:52:00,59.3,56.0,29.79,SW,231,1.0,8.0,90,0.00,,,0.00,0,weatherlink.com 1.10,2017-02-23 11:52:00,
2017-02-23 07:07:00,59.2,56.0,29.79,SW,228,3.0,9.0,90,0.00,,,0.00,0,weatherlink.com 1.10,2017-02-23 12:07:00,
2017-02-23 07:22:00,59.2,56.0,29.79,SW,225,4.0,6.0,90,0.00,,,0.00,0,weatherlink.com 1.10,2017-02-23 12:22:00,
2017-02-23 07:37:00,59.2,56.0,29.79,SW,223,5.0,7.0,90,0.00,,,0.00,7,weatherlink.com 1.10,2017-02-23 12:37:00,
2017-02-23 07:52:00,59.2,56.0,29.80,SW,219,5.0,7.0,90,0.00,,,0.00,5,weatherlink.com 1.10,2017-02-23 12:52:00,
2017-02-23 08:08:00,59.1,56.0,29.80,SW,219,3.0,6.0,90,0.00,,,0.00,14,weatherlink.com 1.10,2017-02-23 13:08:00,
2017-02-23 08:23:00,59.1,56.0,29.81,SW,236,5.0,5.0,90,0.00,,,0.00,49,weatherlink.com 1.10,2017-02-23 13:23:00,
2017-02-23 08:38:00,59.3,57.0,29.81,SW,223,1.0,5.0,91,0.00,,,0.00,33,weatherlink.com 1.10,2017-02-23 13:38:00,
2017-02-23 08:53:00,59.4,57.0,29.81,SSW,196,5.0,6.0,91,0.00,,,0.00,88,weatherlink.com 1.10,2017-02-23 13:53:00,
2017-02-23 09:08:00,59.5,57.0,29.81,SSW,207,5.0,10.0,90,0.00,,,0.00,39,weatherlink.com 1.10,2017-02-23 14:08:00,
2017-02-23 09:23:00,59.6,57.0,29.80,South,190,6.0,9.0,90,0.00,,,0.00,63,weatherlink.com 1.10,2017-02-23 14:23:00,
2017-02-23 09:38:00,60.4,58.0,29.81,South,182,4.0,9.0,90,0.00,,,0.00,320,weatherlink.com 1.10,2017-02-23 14:38:00,
2017-02-23 09:53:00,61.1,58.0,29.80,SSW,203,5.0,11.0,89,0.00,,,0.00,274,weatherlink.com 1.10,2017-02-23 14:53:00,
2017-02-23 10:08:00,62.2,59.0,29.80,SW,223,9.0,13.0,88,0.00,,,0.00,439,weatherlink.com 1.10,2017-02-23 15:08:00,
2017-02-23 10:23:00,62.8,59.0,29.80,South,186,4.0,10.0,87,0.00,,,0.00,146,weatherlink.com 1.10,2017-02-23 15:23:00,
2017-02-23 10:38:00,62.7,59.0,29.80,WSW,252,4.0,10.0,86,0.00,,,0.00,204,weatherlink.com 1.10,2017-02-23 15:38:00,
2017-02-23 10:53:00,63.2,59.0,29.80,West,261,6.0,8.0,86,0.00,,,0.00,114,weatherlink.com 1.10,2017-02-23 15:53:00,
2017-02-23 11:08:00,63.1,59.0,29.80,WSW,238,3.0,17.0,85,0.00,,,0.00,155,weatherlink.com 1.10,2017-02-23 16:08:00,
2017-02-23 11:23:00,62.9,58.0,29.80,SW,220,2.0,14.0,85,0.00,,,0.00,151,weatherlink.com 1.10,2017-02-23 16:23:00,
2017-02-23 11:38:00,63.5,59.0,29.79,West,271,4.0,11.0,84,0.00,,,0.00,237,weatherlink.com 1.10,2017-02-23 16:38:00,
2017-02-23 11:53:00,63.7,59.0,29.79,WSW,251,6.0,11.0,84,0.00,,,0.00,206,weatherlink.com 1.10,2017-02-23 16:53:00,
2017-02-23 12:08:00,64.4,59.0,29.79,West,277,3.0,13.0,82,0.00,,,0.00,243,weatherlink.com 1.10,2017-02-23 17:08:00,
2017-02-23 12:23:00,65.9,60.0,29.78,SW,235,2.0,11.0,82,0.00,,,0.00,264,weatherlink.com 1.10,2017-02-23 17:23:00,